Regional Weather Roundup
Issued by NWS

Home | Current Version | Previous Version | Text Only | Print | Product List | Glossary Off
Versions: 1 2 3 4 5 6 7 8 9 10 11 12 13 14 15 16 17 18 19 20 21 22 23 24 25 26 27 28 29 30 31 32 33 34 35 36 37 38 39 40 41 42 43 44 45 46 47 48 49 50

000
ASUS45 KBOU 300007
RWRCO

WEATHER ROUNDUP FOR COLORADO
NATIONAL WEATHER SERVICE DENVER/BOULDER CO
600 PM MDT SUN MAR 29 2015

NOTE: "FAIR" INDICATES FEW OR NO CLOUDS BELOW 12000 FEET WITH NO
SIGNIFICANT WEATHER AND/OR OBSTRUCTIONS TO VISIBILITY.

COZ001>005-013-030-031-300100-
...NORTHWEST COLORADO...

CITY           SKY/WX    TMP DP  RH WIND       PRES   REMARKS
CRAIG          MOSUNNY   65  14  14 VRB6      30.18F
HAYDEN         MOSUNNY   63  14  15 W10G16    30.20S
MEEKER         SUNNY     67  13  12 W12       30.17F
MOUNT WERNER   NOT AVBL
STEAMBOAT SPGS MOSUNNY   59  15  18 NW12      30.21F
WALDEN         MOSUNNY   54   9  16 W9G16     30.25F
$$

COZ006>008-011-300100-
...WEST CENTRAL VALLEYS...

CITY           SKY/WX    TMP DP  RH WIND       PRES   REMARKS
GRAND JUNCTION SUNNY     71   9   9 NW7       30.11F
MONTROSE       SUNNY     72   8   8 NW9       30.17S
EAGLE          SUNNY     66   9  10 SW18      30.19F
RIFLE          SUNNY     71   9   9 W13       30.12F
DELTA          SUNNY     77   7   7 NW10G18   30.12S
NUCLA          SUNNY     72   5   7 NW7       30.20R
$$

COZ017>023-064>068-300100-
...SOUTHWEST COLORADO...

CITY           SKY/WX    TMP DP  RH WIND       PRES   REMARKS
DURANGO        SUNNY     69   8   9 W17       30.17S
CORTEZ         SUNNY     73  12   9 W12       30.16S
PAGOSA SPRINGS CLOUDY    61  14  15 NE6       30.24R
TELLURIDE      NOT AVBL
WOLF CREEK PAS PTSUNNY   36  18  48 S9        30.49S
$$

COZ009-010-012-014-032>034-037-058>063-300100-
...CENTRAL COLORADO...

CITY           SKY/WX    TMP DP  RH WIND       PRES   REMARKS
ASPEN          SUNNY     62   8  12 N7        30.23F
BUENA VISTA    SUNNY     62  -2   7 W15       30.24R
COPPER MTN     SUNNY     45 -17   7 W21G26    30.44S
BERTHOUD PASS  FAIR      34  28  80 NW20G32   30.45R WCI  22
COTTONWOOD PAS SUNNY     55 -18   4 N3        30.35R
GUNNISON       SUNNY     63   7  11 W12       30.27R
KREMMLING      SUNNY     61  -9   5 NW13      30.22S
LEADVILLE      SUNNY     48   3  15 NW9       30.34S
SALIDA         SUNNY     67  -8   5 NW8       30.27S
SUNLIGHT       SUNNY     50  12  22 SW3       30.43S
WILKERSON PASS SUNNY     45  -4  13 NW7       30.43R
$$

COZ069>075-300100-
...SAN LUIS VALLEY/SANGRE DE CRISTO MOUNTAINS...

CITY           SKY/WX    TMP DP  RH WIND       PRES   REMARKS
ALAMOSA        PTSUNNY   64  12  13 SW17G25   30.20S
LA VETA PASS   PTSUNNY   43  25  49 NE6       30.37S
SAGUACHE       NOT AVBL
$$

COZ035-036-038>040-300100-
...NORTHERN COLORADO FRONT RANGE...

CITY           SKY/WX    TMP DP  RH WIND       PRES   REMARKS
DENVER INTL AP MOSUNNY   61  26  26 SE15      30.14F
DMNS CITY PARK   N/A     64  26  23 SE8       30.13F
AURORA         MOSUNNY   62  27  26 SE15      30.15F
FRONT RANGE AP MOSUNNY   63  27  25 SE13G18   30.16F
ERIE MUNI ARPT MOSUNNY   62  23  23 E9        30.14S
BOULDER MUN AP MOSUNNY   61  27  27 E5        30.14S
CENTENNIAL     MOSUNNY   63  24  22 S16       30.15F
BROOMFIELD     MOSUNNY   64  25  22 S8        30.15F
FORT COLLINS   MOSUNNY   63  25  23 S12       30.15S
LONGMONT       MOSUNNY   66  24  20 SE8       30.15S
$$

COZ041-046-047-076>085-087-088-300100-
...PIKES PEAK/PALMER DIVIDE AND SOUTHERN FOOTHILLS...

CITY           SKY/WX    TMP DP  RH WIND       PRES   REMARKS
COLO. SPRINGS  MOSUNNY   59  20  22 S20       30.22R
A. F. ACADEMY  SUNNY     58  20  23 SE16      30.21R
ELLICOTT       SUNNY    N/A N/A N/A S14       30.21S
FALCON         SUNNY     56  18  21 S14G20    30.25R
FORT CARSON    SUNNY     61  22  23 S15       30.20R
LIMON          SUNNY     58  20  22 S6        30.19F
MONUMENT HILL  SUNNY     54  21  28 S18       30.22S
TRINIDAD       PTSUNNY   61  22  22 SE15      30.21F
$$

COZ042>045-048>051-090-091-300100-
...NORTHEAST COLORADO...

CITY           SKY/WX    TMP DP  RH WIND       PRES   REMARKS
GREELEY ARPT   SUNNY     64  23  20 S13G20    30.13S
AKRON          PTSUNNY   60  21  22 S5        30.16F
BURLINGTON     SUNNY     62  17  17 CALM      30.18F
WRAY           SUNNY     64  15  15 NE3       30.15F
STERLING       PTSUNNY   63  23  22 NE3       30.14R
HOLYOKE        NOT AVBL
FORT MORGAN    PTSUNNY  N/A N/A N/A S5        30.15S
$$

COZ086-089-092>099-300100-
...SOUTHEAST COLORADO...

CITY           SKY/WX    TMP DP  RH WIND       PRES   REMARKS
PUEBLO         SUNNY     65  22  19 SE14      30.16F
LA JUNTA       SUNNY     68  19  15 E8        30.16S
LAMAR          SUNNY     69  18  14 E9        30.14F
SPRINGFIELD      N/A     65  17  15 NE5       30.18S
$$


USA.gov is the U.S. government's official web portal to all federal, state and local government web resources and services.